Regional Weather Roundup
Issued by NWS Kansas City/Pleasant Hill, MO

Current Version | Previous Version | Text Only | Print | Product List | Glossary On
Versions: 1 2 3 4 5 6 7 8 9 10 11 12 13 14 15 16 17 18 19 20 21 22 23 24 25 26 27 28 29 30 31 32 33 34 35 36 37 38 39 40 41 42 43 44 45 46 47 48 49 50
000
ASUS43 KEAX 282111
RWREAX

WEATHER ROUNDUP FOR EASTERN KANSAS AND NORTHWEST MISSOURI
NATIONAL WEATHER SERVICE KANSAS CITY/PLEASANT HILL MO
300 PM CST FRI NOV 28 2014

KSZ040-057-103>105-MOZ028-029-037-043-282200-
...KANSAS CITY METROPOLITAN AREA...

CITY           SKY/WX    TMP DP  RH WIND       PRES   REMARKS
K.C. INTL      PTSUNNY   56  33  42 S14       29.80F
K.C. DOWNTOWN  PTSUNNY   59  32  36 S14       29.81F
LEES SUMMIT    SUNNY     59  33  37 S10       29.82F
OLATHE - IXD   MOSUNNY   58  33  39 S14       29.81F
OLATHE - OJC   MOSUNNY   59  33  37 SW14G21   29.81F
LAWRENCE       PTSUNNY   60  33  36 S10       29.80F

$$

MOZ001>008-011>017-020>025-030>033-038>040-044>046-053-054-282200-
...NORTHERN AND CENTRAL MISSOURI...

CITY           SKY/WX    TMP DP  RH WIND       PRES   REMARKS
ST. JOSEPH     PTSUNNY   56  32  40 S15       29.79F
MOSBY          PTCLDY    57  32  38 S12       29.81F
WARRENSBURG    SUNNY     59  32  36 S13       29.83F
WHITEMAN AFB   MOSUNNY   59  35  40 SW16      29.83F
CLINTON        SUNNY     63  37  39 SW10G20   29.86F
SEDALIA        MOSUNNY   61  34  36 SW14      29.86F
WARSAW         NOT AVBL
MARSHALL       MOSUNNY   61  37  41 S15       29.85F
CHILLICOTHE      N/A     53  35  50 S10       29.82F
KIRKSVILLE     PTSUNNY   51  34  52 S10       29.84F

$$

MOZ041-047>049-056>058-063>065-088>090-097-282200-
...EASTERN AND SOUTHERN MISSOURI...

CITY           SKY/WX    TMP DP  RH WIND       PRES   REMARKS
ST. LOUIS INTL PTSUNNY   51  33  50 S12       29.96F
SPIRIT OF STL  SUNNY     53  33  46 S12G21    29.93F
COLUMBIA       PTSUNNY   58  34  40 S18       29.88F
JEFFERSON CITY MOSUNNY   59  33  37 S7        29.89F
MEXICO         MOSUNNY   57  39  51 S13       29.89S
ROLLA          SUNNY     54  33  45 S14       29.91F
LEBANON        MOSUNNY   61  32  33 S13       29.92F
OSAGE BEACH    MOSUNNY   61  34  36 SW14      29.90F
SPRINGFIELD    SUNNY     63  33  32 SW20G30   29.92F
BRANSON        MOSUNNY   63  34  34 S14G21    29.99F
JOPLIN         SUNNY     63  34  33 S18G26    29.90F
WEST PLAINS    SUNNY     54  32  43 S15G21    30.01F

$$

IAZ060-094-KSZ022-034>040-054-083-096-NEZ052-066-093-282200-
...KANSAS...SOUTHEAST NEBRASKA AND IOWA...

CITY           SKY/WX    TMP DP  RH WIND       PRES   REMARKS
TOPEKA         MOSUNNY   66  34  30 S13       29.79F
MANHATTAN      SUNNY     64  33  31 SW12      29.77F
EMPORIA        PTSUNNY   63  33  32 S18       29.80S
CHANUTE        SUNNY     62  35  36 S22G28    29.85F
WICHITA        MOSUNNY   62  34  35 S20G25    29.82F
OMAHA          MOSUNNY   51  31  46 S17       29.71F
LINCOLN        MOSUNNY   61  30  31 S14       29.69F
FALLS CITY     MOSUNNY   59  32  36 S15       29.75F
LAMONI         SUNNY     49  32  52 S14       29.78F
DES MOINES     MOSUNNY   42  30  62 S13       29.79F

$$



USA.gov is the U.S. government's official web portal to all federal, state and local government web resources and services.